Regional Weather Roundup
Issued by NWS

Home | Current Version | Previous Version | Text Only | Print | Product List | Glossary Off
Versions: 1 2 3 4 5 6 7 8 9 10 11 12 13 14 15 16 17 18 19 20 21 22 23 24 25 26 27 28 29 30 31 32 33 34 35 36 37 38 39 40 41 42 43 44 45 46 47 48 49 50

000
ASUS45 KBOU 011707
RWRCO

WEATHER ROUNDUP FOR COLORADO
NATIONAL WEATHER SERVICE DENVER/BOULDER CO
1100 AM MDT WED OCT 01 2014

NOTE: "FAIR" INDICATES FEW OR NO CLOUDS BELOW 12000 FEET WITH NO
SIGNIFICANT WEATHER AND/OR OBSTRUCTIONS TO VISIBILITY.

COZ001>005-013-030-031-011800-
...NORTHWEST COLORADO...

CITY           SKY/WX    TMP DP  RH WIND       PRES   REMARKS
CRAIG          CLOUDY    42  37  82 N5        30.03R
HAYDEN         CLOUDY    36  32  87 S5        30.04R
MEEKER         LGT RAIN  40  36  86 VRB3      30.03R
MOUNT WERNER   NOT AVBL
STEAMBOAT SPGS CLOUDY    36  34  92 W5        30.03R
WALDEN         CLOUDY    32  32 100 NW12      30.02R VSB 3/4 WCI  23
$$

COZ006>008-011-011800-
...WEST CENTRAL VALLEYS...

CITY           SKY/WX    TMP DP  RH WIND       PRES   REMARKS
GRAND JUNCTION CLOUDY    50  45  83 SE6       30.01S
MONTROSE       HVY RAIN  43  41  93 N6        30.07R
EAGLE          LGT RAIN  43  41  93 CALM      30.03R FOG
RIFLE          LGT RAIN  44  40  85 N3        30.03R
DELTA          MIX PCPN  46  45  94 S6        30.03S
NUCLA          LGT RAIN  45  43  93 W7        30.08R
$$

COZ017>023-064>068-011800-
...SOUTHWEST COLORADO...

CITY           SKY/WX    TMP DP  RH WIND       PRES   REMARKS
DURANGO        PTSUNNY   52  40  63 SE6       30.03S
CORTEZ         SUNNY     61  38  42 S6        29.99S
PAGOSA SPRINGS LGT RAIN  46  44  96 NE3       30.08F
TELLURIDE      CLOUDY   N/A N/A N/A W10       30.09S
WOLF CREEK PAS SNOW      28  28 100 SW15G23   30.19S VSB<1/4 WCI  17
$$

COZ009-010-012-014-032>034-037-058>063-011800-
...CENTRAL COLORADO...

CITY           SKY/WX    TMP DP  RH WIND       PRES   REMARKS
ASPEN          LGT RAIN  37  34  89 N9        30.03R FOG
BUENA VISTA    MOSUNNY   51  32  48 SE8       30.00F
COPPER MTN     LGT SNOW  36  30  80 S16       30.12S
BERTHOUD PASS  CLOUDY    28  25  86 SE14      30.15F WCI  17
COTTONWOOD PAS PTSUNNY   50  32  50 SE10      30.07S
GUNNISON       CLOUDY    43  36  75 CALM      30.07R
KREMMLING      CLOUDY    46  37  71 W3        29.99S
LEADVILLE      CLOUDY    39  28  64 NW5       30.04F
SALIDA         MOSUNNY   54  33  45 SE13G28   30.07S
SUNLIGHT       SNOW      32  32 100 CALM      30.12R VSB 1/4
WILKERSON PASS NOT AVBL
$$

COZ069>075-011800-
...SAN LUIS VALLEY/SANGRE DE CRISTO MOUNTAINS...

CITY           SKY/WX    TMP DP  RH WIND       PRES   REMARKS
ALAMOSA        PTSUNNY   53  36  52 N8        30.03F
LA VETA PASS   SUNNY     48  27  43 SW7       30.12S
SAGUACHE       PTSUNNY   46  32  57 SE3       30.05F
$$

COZ035-036-038>040-011800-
...NORTHERN COLORADO FRONT RANGE...

CITY           SKY/WX    TMP DP  RH WIND       PRES   REMARKS
DENVER INTL AP PTSUNNY   63  34  33 S6        29.89F
DMNS CITY PARK   N/A     65  37  35 W2G8      29.87F
AURORA         PTSUNNY   60  36  41 W6        29.90F
FRONT RANGE AP PTSUNNY   64  39  39 SE17      29.90F
ERIE MUNI ARPT MOSUNNY   59  37  43 CALM      29.89S
BOULDER MUN AP MOSUNNY   61  36  39 NE3       29.88F
CENTENNIAL     PTSUNNY   60  33  36 W5        29.90F
BROOMFIELD     PTSUNNY   59  37  44 VRB5      29.90F
FORT COLLINS   MOSUNNY   59  43  55 E8        29.90F
LONGMONT       MOSUNNY   64  42  45 CALM      29.89F
$$

COZ041-046-047-076>085-087-088-011800-
...PIKES PEAK/PALMER DIVIDE AND SOUTHERN FOOTHILLS...

CITY           SKY/WX    TMP DP  RH WIND       PRES   REMARKS
COLO. SPRINGS  PTSUNNY   60  35  39 SE14      29.95F
A. F. ACADEMY  MOSUNNY   58  32  37 SE12      29.95F
ELLICOTT       NOT AVBL
FALCON         PTSUNNY   58  31  36 SE9G16    29.98F
FORT CARSON    PTSUNNY   58  37  44 SE8       29.93F
LIMON          MOSUNNY   62  38  40 E13       29.92S
MONUMENT HILL  MOSUNNY   55  32  41 S18       29.95F
TRINIDAD       SUNNY     64  34  32 SE10      29.95S
$$

COZ042>045-048>051-090-091-011800-
...NORTHEAST COLORADO...

CITY           SKY/WX    TMP DP  RH WIND       PRES   REMARKS
GREELEY ARPT   MOSUNNY   63  43  48 SE10      29.90S
AKRON          MOSUNNY   59  43  55 N8        29.90F
BURLINGTON     MOSUNNY   66  42  41 N9        29.89S
WRAY           PTSUNNY   67  44  44 NE5       29.86F
STERLING       MOSUNNY   66  46  48 NE9       29.88S
HOLYOKE        PTSUNNY   66  46  48 N7        29.87S
FORT MORGAN    MOSUNNY   62  40  44 E5        29.90F
$$

COZ086-089-092>099-011800-
...SOUTHEAST COLORADO...

CITY           SKY/WX    TMP DP  RH WIND       PRES   REMARKS
PUEBLO         SUNNY     64  35  34 VRB3      29.89F
LA JUNTA       SUNNY     67  39  35 SE8       29.89S
LAMAR          SUNNY     67  46  47 VRB5      29.85F
SPRINGFIELD      N/A     69  39  33 VRB7      29.88F
$$


USA.gov is the U.S. government's official web portal to all federal, state and local government web resources and services.